FW0042 Weather Reports


time (UTC)temp
C
wind
direction
speed
KPH
gust
KPH
rain 1hr
cm
rain 24hr
cm
rain mn
cm
humidity
%
barometer
mb
20260508030020 -17 0.0 0.0 0.00 0.00 0.00 1017.7
20260508024515 -17 0.0 0.0 0.00 0.00 0.00 1017.7
20260508023023 -17 0.0 0.0 0.00 0.00 0.00 1017.7
20260508021511 -17 0.0 0.0 0.00 0.00 0.00 1017.4
20260508020002 -17 0.0 0.0 0.00 0.00 0.00 1017.4
20260508014600 3 182 0.0 1.6 0.00 0.00 0.00 83 1017.4
20260508013158 3 182 0.0 0.0 0.00 0.00 0.00 81 1017.3
20260508011658 3 182 0.0 1.6 0.00 0.00 0.00 82 1017.3
20260508010054 3 182 0.0 0.0 0.00 0.00 0.00 81 1017.4
20260508004553 3 182 0.0 0.0 0.00 0.00 0.00 81 1017.4
20260508003100 3 182 0.0 0.0 0.00 0.00 0.00 81 1017.5
20260508001556 3 182 0.0 0.0 0.00 0.00 0.00 80 1017.6
20260508000049 3 182 0.0 0.0 0.00 0.00 0.00 80 1017.5
20260507234548 3 182 0.0 0.0 0.00 0.00 0.00 79 1017.5
20260507233046 4 182 0.0 0.0 0.00 0.00 0.00 78 1017.6
20260507231544 4 182 0.0 0.0 0.00 0.00 0.00 78 1017.6
20260507230043 4 182 0.0 0.0 0.00 0.00 0.00 78 1017.5
20260507224558 4 182 0.0 0.0 0.00 0.00 0.00 77 1017.5
20260507223043 5 182 0.0 0.0 0.00 0.00 0.00 75 1017.4
20260507221535 5 182 0.0 0.0 0.00 0.00 0.00 74 1017.3
20260507220031 5 182 0.0 0.0 0.00 0.00 0.00 73 1017.1
20260507214531 5 182 0.0 0.0 0.00 0.00 0.00 72 1017.1
20260507213030 5 182 0.0 0.0 0.00 0.00 0.00 71 1017.0
20260507211530 6 182 0.0 0.0 0.00 0.00 0.00 69 1016.9
20260507210032 6 182 0.0 0.0 0.00 0.00 0.00 68 1016.8
20260507204530 6 182 0.0 1.6 0.00 0.00 0.00 66 1016.7
20260507203028 7 183 0.0 0.0 0.00 0.00 0.00 64 1016.6
20260507201528 7 184 0.0 0.0 0.00 0.00 0.00 61 1016.5
20260507200027 8 184 0.0 0.0 0.00 0.00 0.00 60 1016.3
20260507194525 8 184 0.0 0.0 0.00 0.00 0.00 58 1016.2
20260507193028 8 184 0.0 0.0 0.00 0.00 0.00 59 1016.1
20260507191524 8 184 0.0 0.0 0.00 0.00 0.00 58 1016.0
20260507190027 9 184 0.0 0.0 0.00 0.00 0.00 57 1016.0
20260507184523 9 243 0.0 0.0 0.00 0.00 0.00 59 1015.9
20260507183023 9 238 0.0 0.0 0.00 0.00 0.00 58 1015.8
20260507181521 9 238 0.0 0.0 0.00 0.00 0.00 59 1015.7
20260507180020 9 246 0.0 0.0 0.00 0.00 0.00 58 1015.7
20260507174520 10 199 0.0 0.0 0.00 0.00 0.00 56 1015.8
20260507173019 10 148 0.0 0.0 0.00 0.00 0.00 57 1015.8
20260507171518 10 168 0.0 0.0 0.00 0.00 0.00 57 1015.8
20260507170017 10 134 0.0 3.2 0.00 0.00 0.00 54 1016.0
20260507164516 10 192 0.0 0.0 0.00 0.00 0.00 57 1016.0
20260507163020 10 186 0.0 0.0 0.00 0.00 0.00 52 1016.0
20260507161515 10 290 0.0 0.0 0.00 0.00 0.00 54 1016.2
20260507160016 10 175 0.0 0.0 0.00 0.00 0.00 56 1016.3
20260507154512 10 189 0.0 1.6 0.00 0.00 0.00 54 1016.5
20260507153011 10 194 0.0 1.6 0.00 0.00 0.00 54 1016.5
20260507151510 10 143 0.0 1.6 0.00 0.00 0.00 57 1016.5
20260507150012 10 132 0.0 0.0 0.00 0.00 0.00 54 1016.5
20260507144507 10 129 0.0 1.6 0.00 0.00 0.00 53 1016.6
20260507143006 10 129 0.0 1.6 0.00 0.00 0.00 49 1016.7
20260507141504 10 119 0.0 3.2 0.00 0.00 0.00 48 1016.7
20260507140004 10 118 0.0 1.6 0.00 0.00 0.00 50 1016.7
20260507134502 10 103 0.0 1.6 0.00 0.00 0.00 49 1016.7
20260507133105 10 96 0.0 1.6 0.00 0.00 0.00 52 1016.8
20260507131603 10 86 0.0 0.0 0.00 0.00 0.00 49 1016.9
20260507130058 10 103 0.0 3.2 0.00 0.00 0.00 50 1017.0
20260507124559 10 135 0.0 3.2 0.00 0.00 0.00 50 1017.1
20260507123057 10 128 0.0 3.2 0.00 0.00 0.00 52 1017.0
20260507121553 10 72 0.0 1.6 0.00 0.00 0.00 51 1017.2
20260507120052 10 126 0.0 4.8 0.00 0.00 0.00 52 1017.3
20260507114549 10 121 0.0 3.2 0.00 0.00 0.00 51 1017.3
20260507113048 10 140 0.0 3.2 0.00 0.00 0.00 54 1017.2
20260507111547 9 144 0.0 3.2 0.00 0.00 0.00 54 1017.3
20260507110050 9 156 0.0 9.7 0.00 0.00 0.00 54 1017.3
20260507104543 10 121 0.0 1.6 0.00 0.00 0.00 53 1017.2
20260507103042 10 5 0.0 0.0 0.00 0.00 0.00 59 1017.2
20260507101557 11 5 0.0 0.0 0.00 0.00 0.00 58 1017.2
20260507100040 11 5 0.0 0.0 0.00 0.00 0.00 57 1017.2
20260507094543 12 5 0.0 0.0 0.00 0.00 0.00 60 1017.2
20260507093037 12 15 0.0 0.0 0.00 0.00 0.00 56 1017.3
20260507091551 13 17 0.0 0.0 0.00 0.00 0.00 60 1017.3
20260507090035 12 24 0.0 0.0 0.00 0.00 0.00 66 1017.4
20260507084531 13 350 0.0 1.6 0.00 0.00 0.00 58 1017.4
20260507083030 12 355 0.0 0.0 0.00 0.00 0.00 58 1017.4
20260507081534 12 19 0.0 0.0 0.00 0.00 0.00 64 1017.2
20260507080021 11 340 0.0 0.0 0.00 0.00 0.00 64 1017.2
20260507074517 10 333 0.0 0.0 0.00 0.00 0.00 70 1017.2
20260507073012 9 346 0.0 0.0 0.00 0.00 0.00 75 1017.1
20260507071509 8 355 0.0 0.0 0.00 0.00 0.00 85 1017.2
20260507070007 7 11 0.0 0.0 0.00 0.00 0.00 89 1017.2
20260507064600 6 11 0.0 0.0 0.00 0.00 0.00 94 1017.2
20260507063100 5 15 0.0 0.0 0.00 0.00 0.00 95 1017.2
20260507061551 4 15 0.0 0.0 0.00 0.00 0.00 96 1017.1
20260507060046 -17 0.0 0.0 0.00 0.00 0.00 1017.1
20260507054546 -17 0.0 0.0 0.00 0.00 0.00 1017.1
20260507053042 -17 0.0 0.0 0.00 0.00 0.00 1017.0
20260507051533 -17 0.0 0.0 0.00 0.00 0.00 1016.9
20260507050033 -17 0.0 0.0 0.00 0.00 0.00 1016.8
20260507044539 -17 0.0 0.0 0.00 0.00 0.00 1016.7
20260507043019 -17 0.0 0.0 0.00 0.00 0.00 1016.7
20260507041516 -17 0.0 0.0 0.00 0.00 0.00 1016.6
20260507040011 -17 0.0 0.0 0.00 0.00 0.00 1016.6
20260507034507 -17 0.0 0.0 0.00 0.00 0.00 1016.6
20260507033007 -17 0.0 0.0 0.00 0.00 0.00 1016.5
20260507031558 -17 0.0 0.0 0.00 0.00 0.00 1016.5